Regional Weather Roundup
Issued by NWS

Home | Current Version | Previous Version | Text Only | Print | Product List | Glossary On
Versions: 1 2 3 4 5 6 7 8 9 10 11 12 13 14 15 16 17 18 19 20 21 22 23 24 25 26 27 28 29 30 31 32 33 34 35 36 37 38 39 40 41 42 43 44 45 46 47 48 49 50
000
ASUS43 KFSD 291602
RWRSD

WEATHER ROUNDUP FOR SOUTH DAKOTA
NATIONAL WEATHER SERVICE SIOUX FALLS SD
1100 AM CDT THU JUN 29 2017

NOTE: "FAIR" INDICATES FEW OR NO CLOUDS BELOW 12,000 FEET WITH NO
SIGNIFICANT WEATHER AND/OR OBSTRUCTIONS TO VISIBILITY.


SDZ001>005-009-010-012>017-291700-
NORTHWEST AND NORTH CENTRAL SOUTH DAKOTA

CITY           SKY/WX    TMP DP  RH WIND       PRES   REMARKS
BUFFALO          N/A     61  54  77 S8        29.85R
FAITH            N/A     58  58 100 N6        29.90R
MOBRIDGE       CLOUDY    66  52  60 SW3       29.84R
$$

SDZ012>016-024>037-041>051-057-063-072>074-291700-
SOUTHWEST AND SOUTH CENTRAL SOUTH DAKOTA

CITY           SKY/WX    TMP DP  RH WIND       PRES   REMARKS
RAPID CTY ARPT LGT RAIN  61  51  70 NW22G29   29.92R
PIERRE         LGT RAIN  66  58  75 N12       29.84R
CUSTER         PTSUNNY   58  41  53 NW7       29.99R
ELLSWORTH AFB  CLOUDY    60  52  76 NW18      29.92R
PHILIP         CLOUDY    66  56  70 N22G29    29.86R
PINE RIDGE     MOSUNNY   69  54  58 N8        29.92R
SPEARFISH      LGT RAIN  55  52  88 SW5G14    29.98R
WINNER         FAIR      77  50  38 SE7       29.80R
$$

SDZ004>011-016>023-039-040-291700-
NORTHEAST SOUTH DAKOTA

CITY           SKY/WX    TMP DP  RH WIND       PRES   REMARKS
ABERDEEN       CLOUDY    64  56  75 CALM      29.82S
WATERTOWN      MOSUNNY   68  32  26 VRB6      29.83R
BROOKINGS      PTSUNNY   69  58  67 VRB3      29.83F
SISSETON         N/A     67  61  81 NW6       29.81R
$$

SDZ017-020-022-023-036>040-048>070-291700-
SOUTHEAST SOUTH DAKOTA

CITY           SKY/WX    TMP DP  RH WIND       PRES   REMARKS
SIOUX FALLS    PTSUNNY   73  59  61 NE8       29.79F
HURON          CLOUDY    67  59  75 E5        29.80R
CHAMBERLAIN    CLOUDY    77  59  53 E6        29.79S
MITCHELL       PTSUNNY   77  56  48 NE13      29.78F
YANKTON        CLOUDY    73  61  65 E12       29.77R
$$

ABBREVIATIONS USED IN REMARKS
   TC - TEMPERATURE IN CELSIUS
  WCI - WIND CHILL INDEX
   HX - HEAT INDEX
  VSB - VISIBILITY




USA.gov is the U.S. government's official web portal to all federal, state and local government web resources and services.